User: anonymous   Login
Location: Brno
(49.2000°N, 16.6330°E)
Time: 23:52:48
(UTC+01:00)
Language:

COSMOS 2251 DEB - Orbit

View from above orbital plane
View from above orbital plane
View from above satellite
View from above satellite

Ground track
Ground track

The orbit data is extracted from the following two-line orbital elements,

1 37342U 93036BLJ 21334.38467601  .00003007  00000-0  50725-3 0  9990
2 37342  73.7409 344.6560 0032289 101.5697 258.9100 14.69622647379429
Epoch (UTC): 30 November 2021 09:13:56
Eccentricity: 0.0032289
inclination: 73.7409°
perigee height: 639 km
apogee height: 685 km
right ascension of ascending node: 344.6560°
argument of perigee: 101.5697°
revolutions per day: 14.69622647
mean anomaly at epoch: 258.9100°
orbit number at epoch: 37942

The dashed part of the orbit path shows where the satellite is in the earth's shadow,  

DLR